This demonstration page uses our WeatherBlox Daily Observations layout. Learn more.

Hourly Observations for February 4, 2019

Temp ( °F °C ) Dew Point ( °F °C ) Humidity (%) Winds ( mph kmh ) Pressure ( in mb ) Visibility ( mi km ) Precip ( " mm )
12:07 am 00:07 Cloudy with Mist and Fog 29 -1.7 28 -2.2 96 96 NNW 22 35 29.73 1007 3 4.82802 0 0
12:40 am 00:40 Cloudy with Mist and Fog 27 -2.8 26 -3.3 96 96 N 23 37 29.74 1007 2.5 4.02335 0 0
12:54 am 00:54 Cloudy with Mist and Fog 26 -3.3 25 -3.9 96 96 N 20 31 29.7 1006 2.5 4.02335 0 0
1:05 am 01:05 Cloudy with Mist and Fog 26 -3.3 25 -3.9 96 96 NNW 18 30 29.77 1008 3 4.82802 0 0
1:28 am 01:28 Cloudy with Mist and Fog 25 -3.9 23 -5 92 92 NNW 20 31 29.8 1009 6 9.65604 0 0
1:50 am 01:50 Windy with Snow Likely 25 -4 23 -5 93 93 N 23 37 29.81 1009 2 3.21868 0 0.0254
1:54 am 01:54 Windy with Snow Likely 24 -4.4 22 -5.6 91 91 N 21 33 29.75 1007 2 3.21868 0 0.0254
2:08 am 02:08 Windy with Snow Likely 24 -4.4 22 -5.6 91 91 N 26 43 29.82 1010 3 4.82802 0 0.0254
2:51 am 02:51 Cloudy 19 -7 18 -8 93 93 NNW 22 35 29.87 1012 9 14.48406 0 0.0254
2:54 am 02:54 Cloudy 20 -6.7 17 -8.3 89 89 NNW 25 41 29.81 1009 9 14.48406 0 0.0254
3:54 am 03:54 Cloudy 18 -7.8 13 -10.6 81 81 NNW 25 41 29.83 1010 10 16.0934 0 0
4:13 am 04:13 Cloudy 18 -7.8 12 -11.1 77 77 N 29 46 29.92 1013 10 16.0934 0 0
4:40 am 04:40 Cloudy with Light Snow 17 -8.3 12 -11.1 80 80 NNW 18 30 29.95 1014 6 9.65604 0 0.0254
4:54 am 04:54 Windy with Snow Likely 17 -8.3 11 -11.7 77 77 NNW 22 35 29.88 1012 7 11.26538 0 0.0254
5:12 am 05:12 Cloudy 17 -8.3 11 -11.7 77 77 NNW 21 33 29.98 1015 9 14.48406 0 0.0254
5:54 am 05:54 Windy with Snow Likely 15 -9.4 9 -12.8 77 77 NNW 28 44 29.93 1014 8 12.87472 0 0.0254
6:54 am 06:54 Mostly Cloudy 14 -10 7 -13.9 73 73 NNW 23 37 29.98 1015 10 16.0934 0 0.0254
7:54 am 07:54 Cloudy 13 -10.6 6 -14.4 74 74 NNW 21 33 30.02 1017 9 14.48406 0 0.0254
8:31 am 08:31 Mostly Sunny 13 -10.6 5 -15 70 70 NNW 21 33 30.12 1020 10 16.0934 0 0
8:54 am 08:54 Sunny 12 -11.1 3 -16.1 67 67 NNW 24 39 30.06 1018 10 16.0934 0 0
9:54 am 09:54 Sunny 13 -10.6 3 -16.1 64 64 N 21 33 30.1 1019 10 16.0934 0 0
10:54 am 10:54 Mostly Sunny 16 -8.9 5 -15 62 62 NNW 15 24 30.12 1020 10 16.0934 0 0
11:54 am 11:54 Sunny 17 -8.3 6 -14.4 62 62 NNW 18 30 30.14 1021 10 16.0934 0 0
12:54 pm 12:54 Sunny 19 -7.2 7 -13.9 59 59 N 18 30 30.11 1020 10 16.0934 0 0
1:54 pm 13:54 Sunny 20 -6.7 6 -14.4 55 55 NNW 13 20 30.12 1020 10 16.0934 0 0
2:54 pm 14:54 Sunny 21 -6.1 7 -13.9 54 54 N 17 28 30.11 1020 10 16.0934 0 0
3:54 pm 15:54 Sunny 21 -6.1 7 -13.9 54 54 N 17 28 30.12 1020 10 16.0934 0 0
4:54 pm 16:54 Sunny 20 -6.7 6 -14.4 55 55 N 15 24 30.14 1021 10 16.0934 0 0
5:54 pm 17:54 Clear 17 -8.3 4 -15.6 56 56 N 16 26 30.16 1021 10 16.0934 0 0
6:54 pm 18:54 Clear 15 -9.4 3 -16.1 59 59 NNE 15 24 30.19 1022 10 16.0934 0 0
7:54 pm 19:54 Clear 14 -10 2 -16.7 58 58 NNE 18 30 30.19 1022 10 16.0934 0 0
8:54 pm 20:54 Clear 12 -11.1 2 -16.7 64 64 N 15 24 30.2 1023 10 16.0934 0 0
9:54 pm 21:54 Clear 12 -11.1 1 -17.2 61 61 N 10 17 30.21 1023 10 16.0934 0 0
10:54 pm 22:54 Clear 11 -11.7 1 -17.2 64 64 NNE 15 24 30.2 1023 10 16.0934 0 0
11:54 pm 23:54 Clear 10 -12.2 1 -17.2 67 67 NNE 12 19 30.2 1023 10 16.0934 0 0

Powered by AerisWeather